Satellite: FALCON
Catalog number: 30776
Epoch time:      09210.33937611
Element set:    0637
Inclination:      035.4329 deg
RA of node:       203.6614 deg
Eccentricity:    0.0001758
Arg of perigee:   297.5885 deg
Mean anomaly:     062.4653 deg
Mean motion:   15.03276290 rev/day
Decay rate:       2.13e-06 rev/day^2
Epoch rev:           13144
Checksum:              286

Satellite: MAST
Catalog number: 31126
Epoch time:      09211.12858621
Element set:     650
Inclination:      097.9847 deg
RA of node:       263.9623 deg
Eccentricity:    0.0095184
Arg of perigee:   146.0672 deg
Mean anomaly:     214.6685 deg
Mean motion:   14.53509515 rev/day
Decay rate:        6.2e-07 rev/day^2
Epoch rev:           12127
Checksum:              299

Satellite: CAPE1
Catalog number: 31130
Epoch time:      09210.79635372
Element set:     659
Inclination:      097.9845 deg
RA of node:       261.7341 deg
Eccentricity:    0.0103204
Arg of perigee:   152.8152 deg
Mean anomaly:     207.8502 deg
Mean motion:   14.52075163 rev/day
Decay rate:      -1.98e-06 rev/day^2
Epoch rev:           12087
Checksum:              287

Satellite: COMPASS
Catalog number: 32787
Epoch time:      09211.32402263
Element set:     423
Inclination:      097.9399 deg
RA of node:       274.7787 deg
Eccentricity:    0.0014744
Arg of perigee:   251.1673 deg
Mean anomaly:     108.7941 deg
Mean motion:   14.81632532 rev/day
Decay rate:       -5.4e-07 rev/day^2
Epoch rev:            6783
Checksum:              313

Satellite: AAUSAT2
Catalog number: 32788
Epoch time:      09211.82853778
Element set:     420
Inclination:      097.9374 deg
RA of node:       275.3440 deg
Eccentricity:    0.0014197
Arg of perigee:   251.6711 deg
Mean anomaly:     108.2955 deg
Mean motion:   14.81758240 rev/day
Decay rate:       3.46e-06 rev/day^2
Epoch rev:            6791
Checksum:              321

Satellite: DO-64
Catalog number: 32789
Epoch time:      09210.76997063
Element set:    0435
Inclination:      097.9450 deg
RA of node:       274.4849 deg
Eccentricity:    0.0014562
Arg of perigee:   252.5645 deg
Mean anomaly:     107.3971 deg
Mean motion:   14.81755303 rev/day
Decay rate:       3.46e-06 rev/day^2
Epoch rev:           06775
Checksum:              342

Satellite: CO-66
Catalog number: 32791
Epoch time:      09210.22364797
Element set:    0420
Inclination:      097.9393 deg
RA of node:       273.7204 deg
Eccentricity:    0.0015016
Arg of perigee:   253.6195 deg
Mean anomaly:     106.3368 deg
Mean motion:   14.81459365 rev/day
Decay rate:       2.22e-06 rev/day^2
Epoch rev:           06763
Checksum:              312

Satellite: RS-30
Catalog number: 32953
Epoch time:      09210.60785378
Element set:     366
Inclination:      082.4980 deg
RA of node:       230.2319 deg
Eccentricity:    0.0020709
Arg of perigee:   086.3903 deg
Mean anomaly:     273.9546 deg
Mean motion:   12.43002621 rev/day
Decay rate:        1.0e-07 rev/day^2
Epoch rev:            5366
Checksum:              283

Satellite: TACSAT-3
Catalog number: 35001
Epoch time:      09211.82008078
Element set:      61
Inclination:      040.4560 deg
RA of node:       339.7044 deg
Eccentricity:    0.0022996
Arg of perigee:   126.2486 deg
Mean anomaly:     234.0457 deg
Mean motion:   15.38983299 rev/day
Decay rate:      1.607e-05 rev/day^2
Epoch rev:            1107
Checksum:              285

Satellite: PHARMSAT
Catalog number: 35002
Epoch time:      09210.74636239
Element set:      59
Inclination:      040.4700 deg
RA of node:       345.7026 deg
Eccentricity:    0.0026019
Arg of perigee:   122.7324 deg
Mean anomaly:     237.6002 deg
Mean motion:   15.39742912 rev/day
Decay rate:      1.694e-05 rev/day^2
Epoch rev:            1090
Checksum:              258

Satellite: HAWKSAT1
Catalog number: 35003
Epoch time:      09210.79950243
Element set:      61
Inclination:      040.4706 deg
RA of node:       345.2361 deg
Eccentricity:    0.0026605
Arg of perigee:   125.0399 deg
Mean anomaly:     235.2916 deg
Mean motion:   15.39977316 rev/day
Decay rate:      1.470e-05 rev/day^2
Epoch rev:            1092
Checksum:              274

Satellite: CP6
Catalog number: 35004
Epoch time:      09210.72519673
Element set:      55
Inclination:      040.4624 deg
RA of node:       345.4901 deg
Eccentricity:    0.0026246
Arg of perigee:   126.1461 deg
Mean anomaly:     234.1785 deg
Mean motion:   15.40311012 rev/day
Decay rate:      3.425e-05 rev/day^2
Epoch rev:            1090
Checksum:              247

Satellite: AEROCUB3
Catalog number: 35005
Epoch time:      09211.51164573
Element set:      56
Inclination:      040.4756 deg
RA of node:       340.9725 deg
Eccentricity:    0.0025865
Arg of perigee:   129.2521 deg
Mean anomaly:     231.0580 deg
Mean motion:   15.40150016 rev/day
Decay rate:      3.461e-05 rev/day^2
Epoch rev:            1102
Checksum:              244

/EX



_______________________________________________
Via the Keps mailing list courtesy of AMSAT-NA
http://amsat.org/mailman/listinfo/keps

--- ViaMAIL!/WC v1.60d
 * Origin: Chowdanet (401-724-4410) telnet://chowdanet.com  (1:323/120)